AEE4PR LGAV-LGMK

Flight info

Callsign AEE4PR
Flight time 0h 21m
Altitude 15000
Route KEA L995 VARIX
Aircraft A320/M-SDE3FGHIRWY/LB1

Departure

Time 2026-05-04 18:59
Airport Athens Eleftherios Venizelos International Airport (LGAV)

Arrival

Time 2026-05-04 19:21
Airport Mykonos Island National Airport (LGMK)
Time Latitude Longitude Altitude Speed Heading
2026-05-04 17:13 37.94156 23.95292 301 ft 0 kts 217°
2026-05-04 18:50 37.94173 23.95309 302 ft 4 kts 215°
2026-05-04 18:50 37.94196 23.95327 302 ft 4 kts 210°
2026-05-04 18:50 37.94220 23.95343 303 ft 4 kts 201°
2026-05-04 18:51 37.94245 23.95351 301 ft 4 kts 169°
2026-05-04 18:51 37.94259 23.95343 301 ft 1 kts 127°
2026-05-04 18:51 37.94261 23.95340 301 ft 0 kts 127°
2026-05-04 18:54 37.94246 23.95364 301 ft 12 kts 127°
2026-05-04 18:55 37.94170 23.95491 302 ft 21 kts 127°
2026-05-04 18:55 37.94029 23.95640 300 ft 14 kts 217°
2026-05-04 18:55 37.93937 23.95554 298 ft 18 kts 216°
2026-05-04 18:56 37.93827 23.95449 299 ft 21 kts 217°
2026-05-04 18:56 37.93702 23.95331 298 ft 24 kts 217°
2026-05-04 18:56 37.93554 23.95191 299 ft 30 kts 217°
2026-05-04 18:56 37.93374 23.95019 282 ft 35 kts 217°
2026-05-04 18:57 37.93177 23.94832 301 ft 27 kts 217°
2026-05-04 18:57 37.93046 23.94708 301 ft 24 kts 217°
2026-05-04 18:57 37.92906 23.94576 302 ft 27 kts 217°
2026-05-04 18:57 37.92742 23.94419 304 ft 31 kts 217°
2026-05-04 18:58 37.92592 23.94284 303 ft 23 kts 200°
2026-05-04 18:58 37.92508 23.94372 307 ft 15 kts 128°
2026-05-04 18:58 37.92504 23.94469 308 ft 13 kts 39°
2026-05-04 18:58 37.92511 23.94477 308 ft 0 kts 38°
2026-05-04 18:59 37.92560 23.94526 306 ft 32 kts 38°
2026-05-04 18:59 37.93000 23.94942 295 ft 122 kts 38°
2026-05-04 18:59 37.93851 23.95740 475 ft 168 kts 35°
2026-05-04 18:59 37.94814 23.96625 1378 ft 175 kts 34°
2026-05-04 19:00 37.95803 23.97562 2334 ft 178 kts 34°
2026-05-04 19:00 37.96799 23.98513 2849 ft 191 kts 34°
2026-05-04 19:00 37.97926 23.99606 3080 ft 219 kts 35°
2026-05-04 19:00 37.99111 24.01048 3444 ft 248 kts 56°
2026-05-04 19:01 37.99628 24.03163 4212 ft 263 kts 84°
2026-05-04 19:01 37.99287 24.05451 5205 ft 273 kts 113°
2026-05-04 19:01 37.98174 24.07439 6187 ft 279 kts 124°
2026-05-04 19:01 37.96947 24.09375 7091 ft 283 kts 124°
2026-05-04 19:02 37.95700 24.11335 7934 ft 289 kts 125°
2026-05-04 19:02 37.94426 24.13336 8748 ft 295 kts 125°
2026-05-04 19:02 37.93126 24.15376 9558 ft 301 kts 126°
2026-05-04 19:02 37.91796 24.17463 10309 ft 307 kts 126°
2026-05-04 19:03 37.90405 24.19653 10619 ft 330 kts 126°
2026-05-04 19:03 37.88924 24.21988 10921 ft 349 kts 126°
2026-05-04 19:03 37.87384 24.24408 11563 ft 355 kts 126°
2026-05-04 19:03 37.85827 24.26849 12291 ft 358 kts 126°
2026-05-04 19:04 37.84254 24.29309 13041 ft 361 kts 126°
2026-05-04 19:04 37.82668 24.31785 13799 ft 364 kts 126°
2026-05-04 19:04 37.81070 24.34275 14462 ft 367 kts 126°
2026-05-04 19:04 37.79454 24.36796 14954 ft 370 kts 126°
2026-05-04 19:05 37.77851 24.39296 15118 ft 372 kts 126°
2026-05-04 19:05 37.76185 24.41896 15144 ft 385 kts 126°
2026-05-04 19:05 37.74493 24.44538 15147 ft 388 kts 126°
2026-05-04 19:05 37.72795 24.47186 15147 ft 389 kts 126°
2026-05-04 19:06 37.71090 24.49840 15144 ft 389 kts 126°
2026-05-04 19:06 37.69385 24.52491 15141 ft 389 kts 126°
2026-05-04 19:06 37.67702 24.55107 15138 ft 377 kts 126°
2026-05-04 19:06 37.66066 24.57644 14628 ft 368 kts 126°
2026-05-04 19:07 37.64455 24.60138 13722 ft 365 kts 126°
2026-05-04 19:07 37.62886 24.62565 13219 ft 348 kts 126°
2026-05-04 19:07 37.61381 24.64891 12782 ft 340 kts 126°
2026-05-04 19:07 37.59893 24.67199 12333 ft 339 kts 126°
2026-05-04 19:08 37.58404 24.69509 11884 ft 338 kts 126°
2026-05-04 19:08 37.56922 24.71804 11445 ft 337 kts 126°
2026-05-04 19:08 37.55443 24.74093 11008 ft 336 kts 126°
2026-05-04 19:08 37.53967 24.76377 10564 ft 336 kts 126°
2026-05-04 19:09 37.52497 24.78644 10311 ft 329 kts 126°
2026-05-04 19:09 37.51078 24.80828 10090 ft 315 kts 126°
2026-05-04 19:09 37.49701 24.82950 9712 ft 310 kts 126°
2026-05-04 19:09 37.48362 24.85013 9564 ft 307 kts 126°
2026-05-04 19:10 37.47014 24.87086 9256 ft 304 kts 126°
2026-05-04 19:10 37.45680 24.89136 8922 ft 302 kts 126°
2026-05-04 19:10 37.44348 24.91181 8581 ft 300 kts 126°
2026-05-04 19:10 37.43033 24.93198 8023 ft 296 kts 126°
2026-05-04 19:11 37.41731 24.95195 7467 ft 296 kts 126°
2026-05-04 19:11 37.40427 24.97197 7195 ft 294 kts 126°
2026-05-04 19:11 37.39134 24.99188 6887 ft 292 kts 126°
2026-05-04 19:11 37.37853 25.01159 6584 ft 290 kts 125°
2026-05-04 19:12 37.36570 25.03126 6250 ft 291 kts 125°
2026-05-04 19:12 37.34033 25.07040 5293 ft 289 kts 126°
2026-05-04 19:12 37.32778 25.08998 4982 ft 287 kts 126°
2026-05-04 19:13 37.31534 25.10954 4660 ft 285 kts 125°
2026-05-04 19:13 37.30305 25.12900 4353 ft 283 kts 126°
2026-05-04 19:13 37.29093 25.14835 4052 ft 281 kts 126°
2026-05-04 19:13 37.27907 25.16743 3761 ft 279 kts 126°
2026-05-04 19:14 37.26773 25.18683 3618 ft 275 kts 116°
2026-05-04 19:14 37.26180 25.20937 3475 ft 270 kts 98°
2026-05-04 19:14 37.25857 25.23251 3322 ft 269 kts 96°
2026-05-04 19:14 37.25565 25.25583 3168 ft 271 kts 96°
2026-05-04 19:15 37.25292 25.27913 2883 ft 268 kts 96°
2026-05-04 19:15 37.25039 25.30218 2602 ft 266 kts 96°
2026-05-04 19:15 37.24804 25.32517 2317 ft 264 kts 95°
2026-05-04 19:15 37.24663 25.34797 2086 ft 260 kts 81°
2026-05-04 19:16 37.25125 25.36971 2028 ft 258 kts 67°
2026-05-04 19:16 37.25773 25.39070 2031 ft 258 kts 65°
2026-05-04 19:16 37.26441 25.41165 2029 ft 258 kts 65°
2026-05-04 19:16 37.27253 25.43142 2013 ft 253 kts 47°
2026-05-04 19:17 37.28630 25.44421 2012 ft 241 kts 20°
2026-05-04 19:17 37.30196 25.44817 2011 ft 222 kts 357°
2026-05-04 19:17 37.31640 25.44437 2011 ft 204 kts 335°
2026-05-04 19:17 37.32777 25.43497 2008 ft 190 kts 316°
2026-05-04 19:18 37.33527 25.42240 2028 ft 172 kts 299°
2026-05-04 19:18 37.34030 25.40970 2006 ft 156 kts 298°
2026-05-04 19:18 37.34485 25.39834 2013 ft 139 kts 299°
2026-05-04 19:18 37.34980 25.38829 2000 ft 132 kts 316°
2026-05-04 19:19 37.35767 25.38240 1883 ft 133 kts 341°
2026-05-04 19:19 37.36637 25.37870 1694 ft 132 kts 340°
2026-05-04 19:19 37.37500 25.37492 1505 ft 131 kts 340°
2026-05-04 19:19 37.38361 25.37117 1324 ft 130 kts 340°
2026-05-04 19:20 37.39210 25.36743 1158 ft 131 kts 340°
2026-05-04 19:20 37.40071 25.36361 1009 ft 130 kts 339°
2026-05-04 19:20 37.40933 25.35974 828 ft 131 kts 339°
2026-05-04 19:20 37.41791 25.35586 659 ft 131 kts 339°
2026-05-04 19:21 37.42652 25.35207 447 ft 132 kts 340°
2026-05-04 19:21 37.43421 25.34866 403 ft 85 kts 341°
2026-05-04 19:21 37.43688 25.34733 406 ft 7 kts 283°
2026-05-04 19:21 37.43633 25.34677 406 ft 5 kts 214°
2026-05-04 19:22 37.43617 25.34653 407 ft 6 kts 206°
2026-05-04 19:22 37.43556 25.34690 407 ft 12 kts 157°
2026-05-04 19:22 37.43495 25.34670 406 ft 11 kts 251°
2026-05-04 19:22 37.43489 25.34651 408 ft 0 kts 251°